Terug naar catalogus

CZ-4B DEB

ActiefSSO
NORAD 29539·DEBRIS·🇨🇳 China

Gelanceerd Apr 26, 2006 vanaf Taiyuan Satellite Launch Center

Loading…

Volgende Passages (komende 24 uur)

TLE

VersSource: Space-Track

Epoch: Sep 14, 2026, 10:11 UTC

1 29539U 06015F   26257.42457353  .00011765  00000-0  81025-3 0  9994
2 29539  97.7290 326.3684 0064945 115.8489 304.2076 15.04281591 82996

Volg CZ-4B DEB in realtime met AllMySat

Download on the App Store